Location: Strawberry
(45.6646°N, 111.9596°W)
Time: 16:49:43
(UTC+00:00)

RS-44 - Visible Passes

Search period start: 30 November 2022 00:00
Search period end: 10 December 2022 00:00
Orbit: 1175 x 1510 km, 82.5° (Epoch: 29 November)

Date Brightness Start Highest point End Pass type
(mag) Time Alt. Az. Time Alt. Az. Time Alt. Az.
30 Nov ? 09:58:51 31° E 09:58:51 31° E 10:05:54 10° NNE visible
30 Nov ? 11:51:32 63° WNW 11:51:32 63° WNW 12:00:09 10° N visible
30 Nov ? 13:44:14 13° WNW 13:47:07 15° NW 13:51:43 10° NNW visible
01 Dec ? 10:23:38 43° ENE 10:23:38 43° ENE 10:30:13 10° NNE visible
01 Dec ? 12:16:18 42° WNW 12:16:18 42° WNW 12:23:50 10° N visible
02 Dec ? 08:55:32 14° ENE 08:55:32 14° ENE 08:58:03 10° NE visible
02 Dec ? 10:48:11 49° NNE 10:48:11 49° NNE 10:54:19 10° NNE visible
02 Dec ? 12:40:50 29° NW 12:40:50 29° NW 12:47:20 10° N visible
03 Dec ? 00:17:26 10° NW 00:21:32 14° WNW 00:25:36 10° W visible
03 Dec ? 09:19:56 19° NE 09:19:56 19° NE 09:23:23 10° NNE visible
03 Dec ? 11:12:35 45° N 11:12:35 45° N 11:18:15 10° N visible
03 Dec ? 13:05:12 20° NW 13:05:12 20° NW 13:10:35 10° NNW visible
04 Dec ? 09:44:13 24° NE 09:44:13 24° NE 09:47:58 10° NNE visible
04 Dec ? 11:36:51 37° NNW 11:36:51 37° NNW 11:42:02 10° N visible
04 Dec ? 13:29:29 14° NW 13:29:29 14° NW 13:33:15 10° NNW visible
05 Dec ? 10:08:25 28° NNE 10:08:25 28° NNE 10:12:13 10° NNE visible
05 Dec ? 12:01:02 29° NNW 12:01:02 29° NNW 12:05:40 10° N visible
06 Dec ? 08:39:55 11° NE 08:39:55 11° NE 08:40:31 10° NE visible
06 Dec ? 10:32:32 29° NNE 10:32:32 29° NNE 10:36:16 10° NNE visible
06 Dec ? 12:25:09 22° NNW 12:25:09 22° NNW 12:29:08 10° N visible
07 Dec ? 09:03:59 15° NE 09:03:59 15° NE 09:05:33 10° NNE visible
07 Dec ? 10:56:36 27° N 10:56:36 27° N 11:00:09 10° N visible
07 Dec ? 12:49:13 16° NNW 12:49:13 16° NNW 12:52:17 10° NNW visible
08 Dec ? 09:28:00 18° NNE 09:28:00 18° NNE 09:30:00 10° NNE visible
08 Dec ? 11:20:37 24° N 11:20:37 24° N 11:23:53 10° N visible
08 Dec ? 13:13:14 12° NW 13:13:14 12° NW 13:14:39 10° NNW visible
09 Dec ? 09:52:00 19° NNE 09:52:00 19° NNE 09:54:11 10° NNE visible
09 Dec ? 11:44:36 21° NNW 11:44:36 21° NNW 11:47:29 10° N visible
